Location: Waltman Observatory
(32.5145°N, 90.4450°W)
Time: 11:19:12
(UTC-05:00)

Amateur Radio Satellites - All Passes

Search period start: 23 March 2017 10:49
Search period end: 24 March 2017 10:49
Location: Waltman Observatory, 32.5145°N, 90.4450°W

Satellite Date Start Highest point End Downlink Frequencies (MHz)
Time Altitude Azimuth
QB50P2 23 Mar 10:50:15 10:51:06 10° 66° (ENE) 10:51:56 145.880/145.840
DELFI C3 23 Mar 10:56:12 11:00:07 58° 284° (WNW) 11:04:01 145.870
PRISM 23 Mar 10:57:12 10:59:40 16° 265° (W) 11:02:10 437.425
PCSat 23 Mar 11:06:12 11:11:28 53° 298° (WNW) 11:16:47 145.827
JUGNU 23 Mar 11:07:05 11:11:44 24° 178° (S) 11:16:24 437.505
DUCHIFAT 1 23 Mar 11:07:07 11:09:02 13° 68° (ENE) 11:10:58 145.980
SRMSAT 23 Mar 11:15:59 11:19:06 14° 165° (SSE) 11:22:12 437.500
RS-15 23 Mar 11:18:37 11:23:05 13° 96° (E) 11:27:35 29.354- 29.394
FO-29 23 Mar 11:26:23 11:34:03 56° 260° (W) 11:41:34 435.910
NANOSAT C BR1 23 Mar 11:48:41 11:52:46 46° 74° (ENE) 11:56:51 145.865
EO-79 23 Mar 11:50:46 11:54:56 55° 75° (ENE) 11:59:08 145.935-145.965
ESTCUBE 1 23 Mar 11:52:50 11:56:48 30° 97° (E) 12:00:46 437.505/2401.250
AIST 2D 23 Mar 12:02:11 12:05:37 47° 260° (W) 12:09:03 435.315
LO-87 23 Mar 12:04:17 12:07:56 79° 283° (WNW) 12:11:34 145.935 - 145.965
POLYITAN 1 23 Mar 12:17:39 12:21:54 67° 258° (WSW) 12:26:11 437.675
QB50P2 23 Mar 12:22:11 12:26:21 53° 260° (W) 12:30:33 145.880/145.840
DUCHIFAT 1 23 Mar 12:40:16 12:44:17 42° 261° (W) 12:48:21 145.980
Oscar 19 23 Mar 12:53:38 12:57:37 23° 69° (ENE) 13:01:36 437.125/150
JUGNU 23 Mar 12:55:50 13:00:10 21° 188° (S) 13:04:31 437.505
SPROUT 23 Mar 12:57:06 13:01:09 40° 99° (E) 13:05:09 437.525
SRMSAT 23 Mar 13:03:05 13:07:38 23° 174° (S) 13:12:11 437.500
DX 1 23 Mar 13:10:46 13:14:24 25° 97° (E) 13:18:02 434.975-435.025
BUGSAT 1 23 Mar 13:11:07 13:15:15 59° 259° (W) 13:19:26 437.445
50 SAT 23 Mar 13:19:19 13:22:46 56° 101° (E) 13:26:13 437.505
VELOX 1 23 Mar 13:21:00 13:25:28 86° 283° (WNW) 13:29:55 145.980
RS-15 23 Mar 13:21:35 13:33:20 74° 113° (ESE) 13:45:36 29.354- 29.394
NANOSAT C BR1 23 Mar 13:27:32 13:28:40 11° 267° (W) 13:29:48 145.865
ESTCUBE 1 23 Mar 13:30:09 13:33:22 20° 291° (WNW) 13:36:35 437.505/2401.250
UKube-1 23 Mar 13:57:41 14:02:00 66° 102° (ESE) 14:06:18 .
Gurwin Techsat 1B 23 Mar 14:16:53 14:22:12 89° 256° (WSW) 14:27:32 435.225
Oscar 19 23 Mar 14:32:09 14:36:42 32° 262° (W) 14:41:17 437.125/150
ITAMSAT 1 23 Mar 14:33:01 14:36:41 20° 67° (ENE) 14:40:21 435.822/435.867
SPROUT 23 Mar 14:34:32 14:36:39 14° 292° (WNW) 14:38:45 437.525
JUGNU 23 Mar 14:46:25 14:48:32 12° 197° (SSW) 14:50:39 437.505
DX 1 23 Mar 14:47:02 14:50:25 22° 290° (WNW) 14:53:47 434.975-435.025
SRMSAT 23 Mar 14:51:38 14:56:15 23° 185° (S) 15:00:49 437.500
NO-84 23 Mar 15:04:04 15:06:03 15° 40° (NE) 15:08:07 435.350 FM
AO-7 23 Mar 15:05:27 15:13:17 47° 66° (ENE) 15:21:06 .
RS-15 23 Mar 15:36:35 15:46:56 32° 315° (NW) 15:57:36 29.354- 29.394
SO-50 23 Mar 15:49:57 15:54:37 83° 298° (WNW) 15:59:16 436.795
BEESAT 23 Mar 15:53:34 15:58:21 82° 104° (ESE) 16:03:05 436.000
ITUPSAT 1 23 Mar 16:07:25 16:12:10 72° 285° (WNW) 16:16:53 437.325
ITAMSAT 1 23 Mar 16:10:52 16:15:47 41° 261° (W) 16:20:43 435.822/435.867
NO-84 23 Mar 16:40:22 16:43:43 45° 232° (SW) 16:47:22 435.350 FM
SRMSAT 23 Mar 16:41:25 16:44:47 15° 194° (SSW) 16:48:10 437.500
MOZHAYETS 4 23 Mar 16:41:38 16:46:10 72° 284° (WNW) 16:50:41
KKS-1 23 Mar 16:48:53 16:52:31 24° 97° (E) 16:56:09 437.445
AO-7 23 Mar 16:58:50 17:06:04 33° 261° (W) 17:13:20 .
O/OREOS (USA 219) 23 Mar 16:59:33 17:03:03 23° 101° (ESE) 17:06:35 437.305
DOVE 4 23 Mar 17:07:56 17:09:27 11° 64° (ENE) 17:10:58 437.250
CUBESAT XI-V 23 Mar 17:24:27 17:28:56 48° 99° (E) 17:33:26 437.345
XW-2D 23 Mar 17:27:27 17:28:40 11° 69° (ENE) 17:29:55 145.860 - 145.880
XW-2B 23 Mar 17:32:42 17:34:29 13° 69° (ENE) 17:36:16 145.730 - 145.750
STARS 23 Mar 17:34:29 17:38:30 34° 98° (E) 17:42:30 437.465
CUTE-I 23 Mar 17:36:45 17:40:39 21° 67° (ENE) 17:44:35 437.470
NUDT-PHONESAT 23 Mar 17:39:07 17:40:38 12° 69° (ENE) 17:42:09 437.300
KAITUO 1B 23 Mar 17:41:39 17:43:30 13° 70° (ENE) 17:45:21 145.475/437.950
XW-2C 23 Mar 17:41:51 17:44:25 17° 71° (ENE) 17:46:59 145.795 - 145.815
RS-15 23 Mar 18:01:58 18:05:26 11° 349° (N) 18:08:53 29.354- 29.394
KKS-1 23 Mar 18:25:21 18:28:56 24° 290° (WNW) 18:32:30 437.445
LilacSat-2 23 Mar 18:30:02 18:33:53 86° 76° (ENE) 18:37:43 437.200
XW-2F 23 Mar 18:34:52 18:38:40 89° 261° (W) 18:42:29 145.980 - 146.000
O/OREOS (USA 219) 23 Mar 18:38:31 18:42:17 26° 296° (WNW) 18:46:05 437.305
DOVE 4 23 Mar 18:42:05 18:46:28 57° 260° (W) 18:51:10 437.250
XW-2A 23 Mar 18:44:47 18:46:03 12° 70° (ENE) 18:47:18 145.665 - 145.685
HO-68 23 Mar 18:45:52 18:51:41 28° 65° (ENE) 18:57:29 435.675
YUBILEINY 23 Mar 18:54:43 19:02:31 36° 76° (ENE) 19:10:17 435.215
XW-2D 23 Mar 18:58:55 19:02:29 37° 261° (W) 19:06:02 145.860 - 145.880
CUBESAT XI-V 23 Mar 19:03:34 19:05:51 14° 293° (WNW) 19:08:08 437.345
M-CUBED/EXP-1 PRIME 23 Mar 19:03:40 19:08:12 50° 104° (ESE) 19:12:43 437.505
XW-2B 23 Mar 19:04:54 19:08:20 32° 262° (W) 19:11:48 145.730 - 145.750
NUDT-PHONESAT 23 Mar 19:10:48 19:14:13 33° 262° (W) 19:17:38 437.300
STARS 23 Mar 19:11:40 19:14:32 17° 292° (WNW) 19:17:24 437.465
KAITUO 1B 23 Mar 19:13:52 19:17:12 30° 262° (W) 19:20:33 145.475/437.950
XW-2C 23 Mar 19:15:19 19:18:25 23° 264° (W) 19:21:31 145.795 - 145.815
CUTE-I 23 Mar 19:15:21 19:20:21 40° 261° (W) 19:25:25 437.470
AAUSAT CUBESAT 2 23 Mar 19:49:10 19:52:07 19° 71° (ENE) 19:55:04 437.432
SEEDS 23 Mar 19:53:32 19:57:33 50° 75° (ENE) 20:01:35 437.485
CUTE 1.7 + AOD 2 23 Mar 19:53:48 19:58:01 85° 78° (ENE) 20:02:14 437.475
AO-73 23 Mar 19:56:51 19:58:17 11° 67° (ENE) 19:59:44 145.935
PCSat 23 Mar 19:58:35 20:03:48 46° 61° (ENE) 20:08:58 145.827
STRAND 1 23 Mar 20:09:52 20:14:54 57° 101° (E) 20:19:53 437.568
UWE-3 23 Mar 20:11:06 20:15:18 34° 73° (ENE) 20:19:30 435.000/436.395/437.385
XW-2A 23 Mar 20:15:30 20:18:29 28° 262° (W) 20:21:31 145.665 - 145.685
RS-15 23 Mar 20:18:43 20:26:02 17° 28° (NNE) 20:33:10 29.354- 29.394
HO-68 23 Mar 20:32:11 20:39:01 48° 259° (W) 20:45:52 435.675
CUBEBUG 2 23 Mar 20:37:08 20:41:51 71° 259° (W) 20:46:36 437.445
M-CUBED/EXP-1 PRIME 23 Mar 20:39:37 20:42:10 15° 297° (WNW) 20:44:45 437.505
YUBILEINY 23 Mar 20:51:19 20:59:14 41° 272° (W) 21:07:10 435.215
Oscar 11 23 Mar 20:58:10 21:02:20 50° 75° (ENE) 21:06:30 .
ZACube-1 23 Mar 20:59:03 21:03:36 70° 76° (ENE) 21:08:08 437.345
ISS 23 Mar 21:13:54 21:16:57 38° 131° (SE) 21:20:01 437.550
AAUSAT CUBESAT 2 23 Mar 21:24:01 21:27:23 24° 264° (W) 21:30:46 437.432
Tancredo 1 23 Mar 21:28:20 21:31:28 71° 134° (SE) 21:34:38 437.200
AO-73 23 Mar 21:29:31 21:34:00 56° 260° (W) 21:38:27 145.935
AO-85 23 Mar 21:31:42 21:36:13 60° 116° (ESE) 21:40:26 145.980
DELFI C3 23 Mar 21:37:01 21:40:38 37° 74° (ENE) 21:44:16 145.870
PCSat 23 Mar 21:43:06 21:46:46 19° 255° (WSW) 21:50:26 145.827
UWE-3 23 Mar 21:48:32 21:51:46 18° 266° (W) 21:54:59 435.000/436.395/437.385
STRAND 1 23 Mar 21:51:00 21:53:31 14° 295° (WNW) 21:56:02 437.568
TIGRISAT 23 Mar 22:22:22 22:25:48 22° 95° (E) 22:29:08 435.000
RS-15 23 Mar 22:30:03 22:42:05 57° 56° (NE) 22:53:29 29.354- 29.394
UNISAT 6 23 Mar 22:31:09 22:35:03 30° 97° (E) 22:38:52 437.425
BEESAT 3 23 Mar 22:34:13 22:37:10 21° 110° (ESE) 22:40:08 437.485
LO-87 23 Mar 22:36:44 22:39:17 19° 71° (ENE) 22:41:52 145.935 - 145.965
Oscar 11 23 Mar 22:37:58 22:38:41 10° 268° (W) 22:39:23 .
PRISM 23 Mar 22:41:01 22:45:10 85° 286° (WNW) 22:49:20 437.425
FO-29 23 Mar 22:43:29 22:48:14 25° 94° (E) 22:52:36 435.910
ESTCUBE 1 23 Mar 22:48:53 22:51:43 17° 68° (ENE) 22:54:31 437.505/2401.250
ISS 23 Mar 22:51:18 22:53:32 17° 326° (NW) 22:55:45 437.550
Tancredo 1 23 Mar 23:06:50 23:07:56 11° 330° (NNW) 23:09:03 437.200
DELFI C3 23 Mar 23:14:22 23:15:32 11° 267° (W) 23:16:42 145.870
AO-85 23 Mar 23:15:13 23:16:52 12° 309° (NW) 23:18:29 145.980
AIST 2D 23 Mar 23:32:48 23:35:00 16° 95° (E) 23:37:11 435.315
NANOSAT C BR1 23 Mar 23:40:27 23:41:07 10° 93° (E) 23:41:48 145.865
EO-79 23 Mar 23:41:53 23:43:43 12° 93° (E) 23:45:33 145.935-145.965
SPROUT 23 Mar 23:46:48 23:49:42 18° 69° (ENE) 23:52:36 437.525
50 SAT 23 Mar 23:51:11 23:51:48 10° 69° (ENE) 23:52:26 437.505
TIGRISAT 23 Mar 23:58:48 00:02:22 25° 289° (WNW) 00:05:53 435.000
DX 1 24 Mar 00:03:25 00:05:22 13° 67° (ENE) 00:07:19 434.975-435.025
POLYITAN 1 24 Mar 00:07:29 00:11:05 27° 97° (E) 00:14:38 437.675
UNISAT 6 24 Mar 00:08:29 00:11:29 18° 291° (WNW) 00:14:26 437.425
LO-87 24 Mar 00:10:02 00:12:36 18° 264° (W) 00:15:11 145.935 - 145.965
BEESAT 3 24 Mar 00:11:24 00:14:35 24° 305° (NW) 00:17:50 437.485
QB50P2 24 Mar 00:11:44 00:15:34 33° 98° (E) 00:19:23 145.880/145.840
VELOX 1 24 Mar 00:13:32 00:17:42 45° 74° (ENE) 00:21:54 145.980
BEESAT 2 24 Mar 00:19:12 00:23:01 52° 300° (WNW) 00:26:56 435.950
ESTCUBE 1 24 Mar 00:24:05 00:28:10 35° 261° (W) 00:32:17 437.505/2401.250
SO-50 24 Mar 00:26:10 00:29:51 24° 54° (NE) 00:33:32 436.795
FO-29 24 Mar 00:28:03 00:33:22 34° 292° (WNW) 00:38:13 435.910
DUCHIFAT 1 24 Mar 00:28:40 00:32:38 40° 99° (E) 00:36:34 145.980
RS-15 24 Mar 00:43:23 00:53:55 37° 255° (WSW) 01:04:02 29.354- 29.394
UKube-1 24 Mar 00:47:49 00:51:33 30° 72° (ENE) 00:55:18 .
BUGSAT 1 24 Mar 00:57:50 01:01:23 26° 97° (E) 01:04:53 437.445
AIST 2D 24 Mar 01:05:30 01:08:07 20° 288° (WNW) 01:10:43 435.315
Oscar 19 24 Mar 01:11:33 01:13:04 11° 92° (E) 01:14:35 437.125/150
NANOSAT C BR1 24 Mar 01:12:59 01:17:02 47° 286° (WNW) 01:21:03 145.865
EO-79 24 Mar 01:15:39 01:19:37 40° 286° (WNW) 01:23:32 145.935-145.965
50 SAT 24 Mar 01:21:24 01:24:30 31° 262° (W) 01:27:36 437.505
SPROUT 24 Mar 01:21:33 01:25:20 30° 263° (W) 01:29:08 437.525
DX 1 24 Mar 01:36:59 01:41:06 44° 260° (W) 01:45:16 434.975-435.025
POLYITAN 1 24 Mar 01:43:38 01:46:38 19° 290° (WNW) 01:49:37 437.675
QB50P2 24 Mar 01:48:29 01:51:03 16° 292° (WNW) 01:53:35 145.880/145.840
VELOX 1 24 Mar 01:52:36 01:54:20 12° 267° (W) 01:56:04 145.980
DUCHIFAT 1 24 Mar 02:05:56 02:07:54 13° 292° (WNW) 02:09:52 145.980
SO-50 24 Mar 02:06:26 02:10:14 27° 248° (WSW) 02:14:00 436.795
UKube-1 24 Mar 02:24:38 02:27:33 18° 265° (W) 02:30:30 .
BUGSAT 1 24 Mar 02:33:35 02:36:31 19° 291° (WNW) 02:39:25 437.445
Gurwin Techsat 1B 24 Mar 02:37:52 02:43:03 53° 100° (E) 02:48:14 435.225
Oscar 19 24 Mar 02:47:37 02:52:43 65° 285° (WNW) 02:57:50 437.125/150
BEESAT 24 Mar 02:55:10 02:59:50 55° 74° (ENE) 03:04:31 436.000
ITUPSAT 1 24 Mar 03:09:13 03:14:01 78° 76° (ENE) 03:18:49 437.325
O/OREOS (USA 219) 24 Mar 03:13:42 03:17:17 22° 63° (ENE) 03:20:51 437.305
AO-7 24 Mar 03:13:48 03:19:12 19° 95° (E) 03:24:32 .
MOZHAYETS 4 24 Mar 03:38:31 03:43:03 62° 76° (ENE) 03:47:36
KKS-1 24 Mar 03:43:52 03:46:02 13° 67° (ENE) 03:48:11 437.445
Tancredo 1 24 Mar 03:59:54 04:01:03 11° 30° (NNE) 04:02:12 437.200
Gurwin Techsat 1B 24 Mar 04:19:23 04:22:30 16° 295° (WNW) 04:25:38 435.225
CUBESAT XI-V 24 Mar 04:23:32 04:27:24 27° 71° (ENE) 04:31:16 437.345
STARS 24 Mar 04:27:24 04:30:21 18° 68° (ENE) 04:33:20 437.465
ITAMSAT 1 24 Mar 04:28:00 04:33:13 81° 285° (WNW) 04:38:23 435.822/435.867
BEESAT 24 Mar 04:36:14 04:37:51 12° 267° (W) 04:39:29 436.000
O/OREOS (USA 219) 24 Mar 04:52:43 04:56:38 28° 258° (WSW) 05:00:31 437.305
AO-7 24 Mar 05:04:15 05:12:30 75° 289° (WNW) 05:20:45 .
KKS-1 24 Mar 05:17:53 05:22:08 45° 260° (W) 05:26:25 437.445
ISS 24 Mar 05:21:19 05:24:36 65° 43° (NE) 05:27:52 437.550
Tancredo 1 24 Mar 05:34:20 05:37:32 72° 227° (SW) 05:40:44 437.200
M-CUBED/EXP-1 PRIME 24 Mar 05:46:18 05:49:11 24° 66° (ENE) 05:52:15 437.505
CUTE-I 24 Mar 06:00:14 06:01:35 11° 92° (E) 06:02:56 437.470
CUBESAT XI-V 24 Mar 06:01:09 06:04:41 22° 264° (W) 06:08:14 437.345
STARS 24 Mar 06:02:27 06:06:24 32° 262° (W) 06:10:24 437.465
AO-85 24 Mar 06:08:47 06:10:39 13° 52° (NE) 06:12:31 145.980
LilacSat-2 24 Mar 06:09:37 06:11:12 12° 94° (E) 06:12:47 437.200
XW-2F 24 Mar 06:13:22 06:15:00 12° 94° (E) 06:16:38 145.980 - 146.000
XW-2D 24 Mar 06:36:02 06:39:18 28° 97° (E) 06:42:32 145.860 - 145.880
XW-2B 24 Mar 06:41:47 06:45:11 32° 98° (E) 06:48:33 145.730 - 145.750
DOVE 4 24 Mar 06:45:00 06:50:15 58° 100° (E) 06:55:22 437.250
NUDT-PHONESAT 24 Mar 06:45:49 06:49:02 28° 98° (E) 06:52:13 437.300
KAITUO 1B 24 Mar 06:49:23 06:52:43 32° 98° (E) 06:56:02 145.475/437.950
XW-2C 24 Mar 06:51:39 06:55:15 45° 99° (E) 06:58:51 145.795 - 145.815
AO-7 24 Mar 07:00:25 07:03:52 13° 307° (NW) 07:07:20 .
STRAND 1 24 Mar 07:21:03 07:26:01 51° 73° (ENE) 07:31:00 437.568
M-CUBED/EXP-1 PRIME 24 Mar 07:21:26 07:23:39 16° 262° (W) 07:25:57 437.505
CUTE-I 24 Mar 07:36:42 07:42:02 70° 285° (WNW) 07:47:18 437.470
XW-2A 24 Mar 07:42:04 07:44:40 21° 96° (E) 07:47:16 145.665 - 145.685
LilacSat-2 24 Mar 07:42:11 07:45:32 31° 286° (WNW) 07:48:51 437.200
SEEDS 24 Mar 07:43:49 07:45:22 12° 93° (E) 07:46:55 437.485
CUTE 1.7 + AOD 2 24 Mar 07:43:57 07:47:04 20° 95° (E) 07:50:11 437.475
XW-2F 24 Mar 07:45:54 07:49:11 30° 286° (WNW) 07:52:27 145.980 - 146.000
AO-85 24 Mar 07:47:24 07:51:11 43° 246° (WSW) 07:55:06 145.980
YUBILEINY 24 Mar 07:49:26 07:57:42 48° 89° (E) 08:05:55 435.215
NO-84 24 Mar 07:55:31 07:58:17 41° 314° (NW) 08:01:00 435.350 FM
HO-68 24 Mar 08:04:39 08:11:26 44° 100° (E) 08:18:11 435.675
XW-2D 24 Mar 08:11:12 08:13:11 14° 290° (WNW) 08:15:11 145.860 - 145.880
XW-2B 24 Mar 08:17:28 08:19:01 12° 291° (WNW) 08:20:34 145.730 - 145.750
NUDT-PHONESAT 24 Mar 08:20:51 08:22:39 13° 290° (WNW) 08:24:26 437.300
DOVE 4 24 Mar 08:24:27 08:27:19 15° 294° (WNW) 08:30:10 437.250
KAITUO 1B 24 Mar 08:24:58 08:26:23 12° 291° (WNW) 08:27:49 145.475/437.950
BEESAT 3 24 Mar 08:31:35 08:35:25 42° 59° (ENE) 08:39:12 437.485
CUBEBUG 2 24 Mar 08:33:12 08:37:11 33° 97° (E) 08:41:02 437.445
BEESAT 2 24 Mar 08:41:34 08:44:42 21° 54° (NE) 08:47:48 435.950
Oscar 11 24 Mar 08:51:37 08:53:36 13° 93° (E) 08:55:36 .
ZACube-1 24 Mar 08:53:14 08:56:06 18° 94° (E) 08:58:55 437.345
PCSat 24 Mar 08:57:09 08:57:56 10° 102° (ESE) 08:58:43 145.827
STRAND 1 24 Mar 09:02:35 09:05:24 15° 267° (W) 09:08:13 437.568
JUGNU 24 Mar 09:04:13 09:08:11 19° 169° (S) 09:12:11 437.505
AAUSAT CUBESAT 2 24 Mar 09:09:36 09:13:43 68° 101° (E) 09:17:51 437.432
XW-2A 24 Mar 09:15:18 09:17:13 14° 289° (WNW) 09:19:07 145.665 - 145.685
SEEDS 24 Mar 09:17:15 09:21:11 41° 286° (WNW) 09:25:08 437.485
TIGRISAT 24 Mar 09:17:39 09:19:49 13° 67° (ENE) 09:21:57 435.000
CUTE 1.7 + AOD 2 24 Mar 09:19:21 09:22:49 25° 288° (WNW) 09:26:16 437.475
AO-73 24 Mar 09:22:23 09:26:17 37° 98° (E) 09:30:07 145.935
PRISM 24 Mar 09:25:52 09:29:31 33° 73° (ENE) 09:33:12 437.425
UNISAT 6 24 Mar 09:25:55 09:29:03 18° 68° (ENE) 09:32:10 437.425
UWE-3 24 Mar 09:41:25 09:45:39 57° 285° (WNW) 09:49:45 435.000/436.395/437.385
YUBILEINY 24 Mar 09:47:09 09:54:36 31° 285° (WNW) 10:02:05 435.215
HO-68 24 Mar 09:52:50 09:58:50 30° 295° (WNW) 10:04:50 435.675
CUBEBUG 2 24 Mar 10:10:44 10:13:28 16° 292° (WNW) 10:16:09 437.445
BEESAT 3 24 Mar 10:11:09 10:12:34 12° 252° (WSW) 10:13:59 437.485
BEESAT 2 24 Mar 10:19:02 10:22:24 25° 249° (WSW) 10:25:44 435.950
Oscar 11 24 Mar 10:25:51 10:29:51 40° 286° (WNW) 10:33:52 .
ZACube-1 24 Mar 10:28:46 10:32:21 27° 288° (WNW) 10:35:53 437.345
FO-29 24 Mar 10:31:28 10:39:12 63° 73° (ENE) 10:46:40 435.910
PCSat 24 Mar 10:35:11 10:40:35 76° 296° (WNW) 10:46:01 145.827
